Location: Gwatt
(46.7204°N, 7.6223°E)
Time: 08:00:08
(UTC+00:00)

Vanguard 2 - Pass Details

Date: 27 January 2021
Orbit: 552 x 2938 km, 32.9° (Epoch: 24 February)

Event Time Altitude Azimuth Distance (km) Brightness Sun altitude
Rises 15:27:45 0° 224° (SW) 2,819 12.7 7.6°
Reaches altitude 10° 15:31:46 10° 185° (S) 1,817 10.2 7.0°
Maximum altitude 15:32:47 11° 170° (S) 1,766 9.8 6.9°
Drops below altitude 10° 15:33:48 10° 155° (SSE) 1,828 9.7 6.8°
Sets 15:37:54 0° 117° (ESE) 2,880 10.2 6.2°
